Change the Weather History Date:

Friday, December 14, 2012

  Actual Average (KSYR) Record (KSYR)
Temperature  
Mean Temperature 33 °F 30 °F  
Max Temperature 42 °F 37 °F 60 °F (1975)
Min Temperature 24 °F 23 °F -8 °F (2005)
Degree Days  
Heating Degree Days 32 35  
Month to date heating degree days 458  
Since 1 July heating degree days 1807  
Cooling Degree Days 0 0  
Month to date cooling degree days 0  
Year to date cooling degree days 569  
Moisture  
Dew Point 29 °F    
Average Humidity 75    
Maximum Humidity 88    
Minimum Humidity 57    
Precipitation  
Precipitation 0.00 in 0.11 in 1.86 in (1917)
Month to date precipitation 1.57  
Year to date precipitation 36.82  
Snow  
Snow 0.00 in 1.10 in 14.80 in (2003)
Month to date snowfall 13.9  
Since 1 July snowfall 23.8  
Snow Depth -    
Sea Level Pressure  
Sea Level Pressure 30.20 in    
Wind  
Wind Speed 4 mph (WSW)    
Max Wind Speed 14 mph    
Max Gust Speed 22 mph    
Visibility 9 miles    
Events      
T = Trace of Precipitation, MM = Missing Value Source: NWS Daily Summary

Daily Weather History Graph

Daily Weather History Graph

Search for Another Location

Airport or City:

Trip Planner

Search our weather history database for the weather conditions in past years. The results will help you decide how hot, cold, wet, or windy it might be!

Date:

Astronomy

Dec. 14, 2012 Rise Set
Actual Time 7:30 AM EST 4:30 PM EST
Civil Twilight 6:58 AM EST 5:02 PM EST
Nautical Twilight 6:22 AM EST 5:38 PM EST
Astronomical Twilight 5:47 AM EST 6:13 PM EST
Moon 8:32 AM EST (12/14) 6:22 PM EST (12/14)
Length of Visible Light 10h 04m
Length of Day
8h 59m
Waxing Crescent, 3% of the Moon is Illuminated
Dec 14
Waxing Crescent
Dec 20
First Quarter
Dec 28
Full
Jan 4
Last Quarter
Jan 11
New

Hourly Weather History & Observations

Time (EST) Temp. Windchill Dew Point Humidity Pressure Visibility Wind Dir Wind Speed Gust Speed Precip Events Conditions
12:54 AM 30.9 °F - 23.0 °F 72% 30.19 in 10.0 mi Calm Calm - N/A   Clear
1:54 AM 30.0 °F - 21.9 °F 72% 30.20 in 10.0 mi Calm Calm - N/A   Clear
2:54 AM 27.0 °F - 21.9 °F 81% 30.20 in 10.0 mi Calm Calm - N/A   Clear
3:54 AM 26.1 °F - 21.9 °F 84% 30.19 in 10.0 mi Calm Calm - N/A   Clear
4:54 AM 24.1 °F - 19.9 °F 84% 30.18 in 10.0 mi Calm Calm - N/A   Clear
5:54 AM 24.1 °F - 21.0 °F 88% 30.18 in 10.0 mi Calm Calm - N/A   Clear
6:54 AM 26.1 °F 20.5 °F 19.9 °F 78% 30.18 in 10.0 mi South 4.6 mph - N/A   Clear
7:54 AM 30.9 °F 24.3 °F 21.0 °F 67% 30.17 in 10.0 mi SSW 6.9 mph - N/A   Clear
8:54 AM 34.0 °F 29.8 °F 23.0 °F 64% 30.17 in 10.0 mi SW 4.6 mph - N/A   Clear
9:54 AM 37.9 °F 32.1 °F 24.1 °F 57% 30.18 in 10.0 mi WSW 8.1 mph - N/A   Scattered Clouds
10:54 AM 41.0 °F 34.7 °F 27.0 °F 57% 30.18 in 10.0 mi WSW 10.4 mph - N/A   Mostly Cloudy
11:54 AM 42.1 °F 34.9 °F 32.0 °F 67% 30.17 in 10.0 mi West 13.8 mph - N/A   Overcast
12:54 PM 42.1 °F 35.2 °F 33.1 °F 70% 30.18 in 10.0 mi West 12.7 mph - N/A   Overcast
1:54 PM 42.1 °F 36.6 °F 34.0 °F 73% 30.17 in 10.0 mi West 9.2 mph - N/A   Overcast
2:54 PM 42.1 °F 35.2 °F 33.1 °F 70% 30.19 in 10.0 mi WNW 12.7 mph 21.9 mph N/A   Mostly Cloudy
3:05 PM 42.8 °F 37.0 °F 33.8 °F 70% 30.17 in 10.0 mi WNW 10.4 mph - N/A   Mostly Cloudy
3:21 PM 42.8 °F 36.2 °F 33.8 °F 70% 30.17 in 9.0 mi WNW 12.7 mph - N/A   Scattered Clouds
3:54 PM 41.0 °F 34.7 °F 33.1 °F 73% 30.19 in 9.0 mi West 10.4 mph - N/A   Clear
5:54 PM 39.0 °F 35.7 °F 33.1 °F 79% 30.22 in 9.0 mi West 4.6 mph - N/A   Overcast
6:54 PM 39.9 °F 35.8 °F 34.0 °F 79% 30.24 in 9.0 mi West 5.8 mph - N/A   Overcast
7:20 PM 39.2 °F 35.0 °F 33.8 °F 81% 30.22 in 9.0 mi SW 5.8 mph - N/A   Overcast
7:54 PM 39.0 °F 34.0 °F 33.1 °F 79% 30.25 in 8.0 mi SW 6.9 mph - N/A   Overcast
8:24 PM 39.2 °F 33.6 °F 33.8 °F 81% 30.23 in 8.0 mi SW 8.1 mph - N/A   Overcast
8:32 PM 39.2 °F 35.0 °F 33.8 °F 81% 30.23 in 7.0 mi SW 5.8 mph - N/A   Overcast
8:54 PM 37.9 °F 33.5 °F 34.0 °F 86% 30.25 in 7.0 mi WSW 5.8 mph - N/A   Overcast
9:54 PM 37.9 °F 35.5 °F 33.1 °F 83% 30.25 in 8.0 mi SW 3.5 mph - N/A   Overcast
10:54 PM 37.9 °F - 33.1 °F 83% 30.26 in 8.0 mi Calm Calm - N/A   Overcast
11:54 PM 39.0 °F 35.7 °F 30.9 °F 73% 30.24 in 10.0 mi North 4.6 mph - N/A   Overcast